TimeEST,TemperatureF,Dew PointF,Humidity,Sea Level PressureIn,VisibilityMPH,Wind Direction,Wind SpeedMPH,Gust SpeedMPH,PrecipitationIn,Events,Conditions,WindDirDegrees,DateUTC
12:53 AM,28.0,24.1,85,30.41,5.0,Calm,Calm,-,N/A,,Clear,0,2012-11-15 05:53:00
1:53 AM,28.0,25.0,88,30.38,6.0,Calm,Calm,-,N/A,,Clear,0,2012-11-15 06:53:00
2:53 AM,27.0,23.0,85,30.37,5.0,Calm,Calm,-,N/A,,Clear,0,2012-11-15 07:53:00
3:53 AM,27.0,24.1,89,30.37,5.0,Calm,Calm,-,N/A,,Clear,0,2012-11-15 08:53:00
4:53 AM,25.0,21.0,85,30.37,4.0,Calm,Calm,-,N/A,,Clear,0,2012-11-15 09:53:00
5:53 AM,25.0,21.9,88,30.37,3.0,Calm,Calm,-,N/A,,Clear,0,2012-11-15 10:53:00
6:53 AM,25.0,21.0,85,30.38,4.0,Calm,Calm,-,N/A,,Clear,0,2012-11-15 11:53:00
7:37 AM,24.8,19.4,80,30.37,2.5,Calm,Calm,-,N/A,,Haze,0,2012-11-15 12:37:00
7:53 AM,25.0,21.9,88,30.40,2.5,Calm,Calm,-,N/A,,Clear,0,2012-11-15 12:53:00
8:37 AM,28.4,24.8,86,30.39,3.0,Calm,Calm,-,N/A,,Clear,0,2012-11-15 13:37:00
8:53 AM,30.0,27.0,88,30.42,3.0,Calm,Calm,-,N/A,,Clear,0,2012-11-15 13:53:00
9:53 AM,34.0,28.0,79,30.41,6.0,Calm,Calm,-,N/A,,Haze,0,2012-11-15 14:53:00
10:53 AM,37.9,28.9,70,30.41,7.0,East,3.5,-,N/A,,Clear,80,2012-11-15 15:53:00
11:53 AM,39.0,27.0,62,30.40,9.0,Calm,Calm,-,N/A,,Clear,0,2012-11-15 16:53:00
12:53 PM,41.0,30.0,65,30.37,8.0,North,3.5,-,N/A,,Clear,350,2012-11-15 17:53:00
1:53 PM,42.1,30.0,62,30.36,-9999.0,North,4.6,-,N/A,,Clear,360,2012-11-15 18:53:00
2:53 PM,43.0,28.9,58,30.35,8.0,NNE,3.5,-,N/A,,Clear,30,2012-11-15 19:53:00
3:53 PM,43.0,28.9,58,30.34,8.0,Calm,Calm,-,N/A,,Clear,0,2012-11-15 20:53:00
4:53 PM,41.0,30.0,65,30.35,8.0,NE,3.5,-,N/A,,Clear,40,2012-11-15 21:53:00
5:53 PM,36.0,28.0,73,30.36,8.0,Calm,Calm,-,N/A,,Clear,0,2012-11-15 22:53:00
6:53 PM,36.0,28.9,76,30.37,7.0,Calm,Calm,-,N/A,,Clear,0,2012-11-15 23:53:00
7:53 PM,32.0,27.0,82,30.38,7.0,Calm,Calm,-,N/A,,Clear,0,2012-11-16 00:53:00
8:53 PM,30.9,27.0,85,30.38,5.0,Calm,Calm,-,N/A,,Clear,0,2012-11-16 01:53:00
9:53 PM,30.0,26.1,85,30.39,5.0,Calm,Calm,-,N/A,,Clear,0,2012-11-16 02:53:00
10:53 PM,28.9,24.1,82,30.39,5.0,Calm,Calm,-,N/A,,Haze,0,2012-11-16 03:53:00
11:53 PM,28.0,25.0,88,30.39,4.0,Calm,Calm,-,N/A,,Clear,0,2012-11-16 04:53:00